TimeAKST,TemperatureF,Dew PointF,Humidity,Sea Level PressureIn,VisibilityMPH,Wind Direction,Wind SpeedMPH,Gust SpeedMPH,PrecipitationIn,Events,Conditions,WindDirDegrees,DateUTC
12:53 AM,25.0,14.0,63,29.90,10.0,NE,12.7,-,N/A,,Clear,40,2013-02-16 09:53:00
1:53 AM,26.1,12.0,55,29.92,10.0,NNE,13.8,20.7,N/A,,Clear,30,2013-02-16 10:53:00
2:53 AM,24.1,10.9,57,29.94,10.0,North,10.4,19.6,N/A,,Clear,10,2013-02-16 11:53:00
3:53 AM,24.1,10.0,55,29.95,10.0,North,8.1,-,N/A,,Clear,10,2013-02-16 12:53:00
4:53 AM,24.1,9.0,53,29.95,10.0,North,10.4,-,N/A,,Clear,360,2013-02-16 13:53:00
5:53 AM,21.9,10.0,60,29.95,10.0,North,11.5,18.4,N/A,,Clear,10,2013-02-16 14:53:00
6:53 AM,21.9,10.0,60,29.95,10.0,North,15.0,-,N/A,,Clear,10,2013-02-16 15:53:00
7:53 AM,21.0,12.0,68,29.97,10.0,North,10.4,-,N/A,,Clear,10,2013-02-16 16:53:00
8:53 AM,21.9,10.9,63,29.98,10.0,NNE,11.5,-,N/A,,Clear,20,2013-02-16 17:53:00
9:53 AM,21.0,12.0,68,29.99,10.0,North,15.0,-,N/A,,Clear,10,2013-02-16 18:53:00
10:53 AM,21.9,12.9,68,29.99,10.0,North,11.5,-,N/A,,Clear,360,2013-02-16 19:53:00
11:53 AM,25.0,12.0,58,29.99,10.0,North,8.1,-,N/A,,Clear,360,2013-02-16 20:53:00
12:53 PM,26.1,12.9,58,30.00,10.0,North,8.1,-,N/A,,Clear,360,2013-02-16 21:53:00
1:53 PM,27.0,14.0,58,30.00,10.0,North,3.5,-,N/A,,Clear,360,2013-02-16 22:53:00
2:53 PM,28.0,12.9,53,29.98,10.0,NNW,3.5,-,N/A,,Overcast,340,2013-02-16 23:53:00
3:53 PM,28.9,12.9,51,29.96,10.0,Calm,Calm,-,N/A,,Overcast,0,2013-02-17 00:53:00
4:53 PM,28.0,14.0,56,29.95,10.0,Calm,Calm,-,N/A,,Overcast,0,2013-02-17 01:53:00
5:53 PM,28.0,15.1,58,29.92,10.0,NW,3.5,-,N/A,,Overcast,320,2013-02-17 02:53:00
6:53 PM,27.0,19.9,75,29.91,10.0,Calm,Calm,-,N/A,,Overcast,0,2013-02-17 03:53:00
7:53 PM,27.0,21.0,78,29.88,7.0,Calm,Calm,-,0.00,Snow,Light Snow,0,2013-02-17 04:53:00
8:21 PM,26.6,21.2,80,29.87,1.5,Calm,Calm,-,0.00,Snow,Light Snow,0,2013-02-17 05:21:00
8:30 PM,26.6,23.0,86,29.86,1.5,Calm,Calm,-,0.00,Snow,Light Snow,0,2013-02-17 05:30:00
8:53 PM,27.0,25.0,92,29.85,1.2,Calm,Calm,-,0.00,Snow,Light Snow,0,2013-02-17 05:53:00
9:53 PM,26.1,25.0,96,29.82,1.2,Calm,Calm,-,0.00,Snow,Light Snow,0,2013-02-17 06:53:00
10:31 PM,26.6,24.8,93,29.79,1.0,Calm,Calm,-,0.00,Snow,Light Snow,0,2013-02-17 07:31:00
10:40 PM,26.6,26.6,100,29.79,1.2,Calm,Calm,-,0.00,Snow,Light Snow,0,2013-02-17 07:40:00
10:53 PM,27.0,25.0,92,29.78,1.2,Calm,Calm,-,0.00,Snow,Light Snow,0,2013-02-17 07:53:00
11:53 PM,28.0,26.1,92,29.75,1.2,Calm,Calm,-,0.00,Snow,Light Snow,0,2013-02-17 08:53:00